DL1MX-13 Weather Reports


time (UTC)temp
F
wind
direction
speed
knots
gust
knots
rain 1hr
in
rain 24hr
in
rain mn
in
humidity
%
barometer
mb
20230208171954 26 40 2.6 0.0 0.00 0.00 0.00 64 1035.2
20230208171454 26 35 3.5 0.0 0.00 0.00 0.00 63 1035.1
20230208170954 26 40 3.5 0.0 0.00 0.00 0.00 63 1035.1
20230208170453 27 32 3.5 0.0 0.00 0.00 0.00 61 1035.2
20230208165953 27 45 4.3 0.0 0.00 0.00 0.00 60 1035.3
20230208165453 28 50 3.5 0.0 0.00 0.00 0.00 59 1035.1
20230208164953 29 32 4.3 0.0 0.00 0.00 0.00 54 1035.1
20230208164453 30 57 3.5 0.0 0.00 0.00 0.00 52 1035.1
20230208163953 32 142 0.0 0.0 0.00 0.00 0.00 48 1035.0
20230208163453 32 127 4.3 0.0 0.00 0.00 0.00 48 1034.8
20230208162952 32 130 3.5 0.0 0.00 0.00 0.00 48 1034.8
20230208162452 33 132 2.6 0.0 0.00 0.00 0.00 47 1034.8
20230208161952 34 220 2.6 0.0 0.00 0.00 0.00 45 1034.8
20230208161452 34 200 7.0 0.0 0.00 0.00 0.00 43 1034.7
20230208160952 35 182 7.0 0.0 0.00 0.00 0.00 43 1034.7
20230208160452 35 200 4.3 0.0 0.00 0.00 0.00 41 1034.7
20230208155952 36 177 5.2 0.0 0.00 0.00 0.00 40 1034.7
20230208155452 36 165 5.2 0.0 0.00 0.00 0.00 39 1034.7
20230208154951 37 150 6.1 0.0 0.00 0.00 0.00 38 1034.7
20230208154451 37 175 5.2 0.0 0.00 0.00 0.00 38 1034.8
20230208153951 37 185 6.1 0.0 0.00 0.00 0.00 36 1034.8
20230208153451 38 170 5.2 0.0 0.00 0.00 0.00 36 1034.9
20230208152951 40 160 4.3 0.0 0.00 0.00 0.00 35 1034.9
20230208152451 40 162 3.5 0.0 0.00 0.00 0.00 36 1035.0
20230208151951 40 200 3.5 0.0 0.00 0.00 0.00 34 1034.9
20230208151450 40 145 4.3 0.0 0.00 0.00 0.00 34 1035.0
20230208150950 40 112 5.2 0.0 0.00 0.00 0.00 35 1035.0
20230208150450 41 202 2.6 0.0 0.00 0.00 0.00 34 1035.0
20230208145950 41 202 2.6 0.0 0.00 0.00 0.00 36 1035.0
20230208145450 39 165 5.2 0.0 0.00 0.00 0.00 35 1034.9
20230208144950 39 130 6.1 0.0 0.00 0.00 0.00 35 1035.0
20230208144450 39 160 7.8 0.0 0.00 0.00 0.00 35 1035.0
20230208143950 39 200 6.1 0.0 0.00 0.00 0.00 33 1035.0
20230208143449 40 150 6.1 0.0 0.00 0.00 0.00 35 1035.1
20230208142949 40 150 6.1 0.0 0.00 0.00 0.00 35 1035.2
20230208142449 40 165 6.1 0.0 0.00 0.00 0.00 39 1035.4
20230208141949 39 200 6.1 0.0 0.00 0.00 0.00 39 1035.2
20230208141449 39 260 5.2 0.0 0.00 0.00 0.00 43 1035.4
20230208140949 38 240 5.2 0.0 0.00 0.00 0.00 46 1035.3
20230208140449 38 240 5.2 0.0 0.00 0.00 0.00 46 1035.2
20230208135949 38 247 5.2 0.0 0.00 0.00 0.00 47 1035.4
20230208135448 38 235 6.1 0.0 0.00 0.00 0.00 46 1035.4
20230208134948 39 235 5.2 0.0 0.00 0.00 0.00 44 1035.6
20230208134448 38 222 6.1 0.0 0.00 0.00 0.00 45 1035.6
20230208133948 38 222 7.0 0.0 0.00 0.00 0.00 45 1035.5
20230208133448 39 230 5.2 0.0 0.00 0.00 0.00 44 1035.7
20230208132948 38 242 5.2 0.0 0.00 0.00 0.00 46 1035.8
20230208132448 38 230 5.2 0.0 0.00 0.00 0.00 46 1035.9
20230208131948 38 242 6.1 0.0 0.00 0.00 0.00 46 1036.1
20230208131447 38 247 5.2 0.0 0.00 0.00 0.00 46 1036.1
20230208130947 38 247 5.2 0.0 0.00 0.00 0.00 46 1036.1
20230208130447 39 247 5.2 0.0 0.00 0.00 0.00 45 1036.2
20230208125947 40 260 4.3 0.0 0.00 0.00 0.00 43 1036.3
20230208125447 39 252 4.3 0.0 0.00 0.00 0.00 44 1036.4
20230208124947 38 255 4.3 0.0 0.00 0.00 0.00 46 1036.4
20230208124447 38 252 4.3 0.0 0.00 0.00 0.00 47 1036.5
20230208123947 37 250 5.2 0.0 0.00 0.00 0.00 49 1036.7
20230208123446 38 260 5.2 0.0 0.00 0.00 0.00 46 1036.9
20230208122946 37 260 6.1 0.0 0.00 0.00 0.00 47 1037.0
20230208122446 37 255 6.1 0.0 0.00 0.00 0.00 49 1037.0
20230208121946 37 250 6.1 0.0 0.00 0.00 0.00 50 1037.2
20230208121446 37 250 5.2 0.0 0.00 0.00 0.00 50 1037.2
20230208120946 36 250 7.0 0.0 0.00 0.00 0.00 52 1037.3
20230208120446 36 252 7.0 0.0 0.00 0.00 0.00 51 1037.4
20230208115946 36 237 7.0 0.0 0.00 0.00 0.00 50 1037.4
20230208115445 37 257 6.1 0.0 0.00 0.00 0.00 49 1037.5
20230208114945 37 250 6.1 0.0 0.00 0.00 0.00 50 1037.5
20230208114445 37 245 6.1 0.0 0.00 0.00 0.00 49 1037.6
20230208113945 37 210 4.3 0.0 0.00 0.00 0.00 47 1037.6
20230208113445 37 202 6.1 0.0 0.00 0.00 0.00 48 1037.7
20230208112945 37 182 5.2 0.0 0.00 0.00 0.00 48 1037.9
20230208112445 37 205 4.3 0.0 0.00 0.00 0.00 49 1038.1
20230208111945 36 190 5.2 0.0 0.00 0.00 0.00 49 1038.1
20230208111445 36 192 4.3 0.0 0.00 0.00 0.00 50 1038.2
20230208110944 35 245 5.2 0.0 0.00 0.00 0.00 52 1038.2
20230208110444 35 237 6.1 0.0 0.00 0.00 0.00 51 1038.3
20230208105944 35 245 5.2 0.0 0.00 0.00 0.00 48 1038.4
20230208105444 35 247 6.1 0.0 0.00 0.00 0.00 49 1038.6
20230208104944 35 252 7.0 0.0 0.00 0.00 0.00 47 1038.6
20230208104444 35 245 6.1 0.0 0.00 0.00 0.00 48 1038.6
20230208103944 35 250 7.0 0.0 0.00 0.00 0.00 49 1038.7
20230208103444 35 240 6.1 0.0 0.00 0.00 0.00 49 1038.7
20230208102943 35 210 6.1 0.0 0.00 0.00 0.00 45 1038.6
20230208102443 35 190 7.0 0.0 0.00 0.00 0.00 47 1038.7
20230208101943 35 190 7.0 0.0 0.00 0.00 0.00 47 1038.8
20230208101443 35 192 6.1 0.0 0.00 0.00 0.00 47 1038.9
20230208100943 36 192 7.0 0.0 0.00 0.00 0.00 48 1039.0
20230208100443 37 212 7.0 0.0 0.00 0.00 0.00 46 1039.1
20230208095943 38 215 4.3 0.0 0.00 0.00 0.00 53 1039.3
20230208095442 40 235 0.0 0.0 0.00 0.00 0.00 50 1039.5
20230208094942 40 262 0.0 0.0 0.00 0.00 0.00 54 1039.5
20230208094442 40 110 0.0 0.0 0.00 0.00 0.00 54 1039.6
20230208093942 38 140 0.0 0.0 0.00 0.00 0.00 58 1039.7
20230208093442 37 40 0.0 0.0 0.00 0.00 0.00 61 1039.8
20230208092942 35 42 1.7 0.0 0.00 0.00 0.00 61 1039.9
20230208092442 35 10 3.5 0.0 0.00 0.00 0.00 61 1039.9
20230208091942 34 32 3.5 0.0 0.00 0.00 0.00 61 1040.0
20230208091441 33 127 0.0 0.0 0.00 0.00 0.00 64 1040.1
20230208090941 33 127 0.0 0.0 0.00 0.00 0.00 64 1040.1
20230208090441 32 27 2.6 0.0 0.00 0.00 0.00 64 1040.2
20230208085941 31 25 4.3 0.0 0.00 0.00 0.00 63 1040.3
20230208085441 32 47 0.0 0.0 0.00 0.00 0.00 66 1040.4
20230208084941 30 52 0.0 0.0 0.00 0.00 0.00 68 1040.4
20230208084441 28 67 0.0 0.0 0.00 0.00 0.00 70 1040.3
20230208083941 27 70 0.0 0.0 0.00 0.00 0.00 69 1040.4
20230208083440 27 30 0.0 0.0 0.00 0.00 0.00 69 1040.3
20230208082940 27 40 0.0 0.0 0.00 0.00 0.00 69 1040.5
20230208082440 26 37 0.0 0.0 0.00 0.00 0.00 72 1040.5
20230208081940 24 30 0.0 0.0 0.00 0.00 0.00 72 1040.4
20230208081440 23 20 0.0 0.0 0.00 0.00 0.00 73 1040.5
20230208080940 22 2 2.6 0.0 0.00 0.00 0.00 75 1040.6
20230208080440 21 22 2.6 0.0 0.00 0.00 0.00 76 1040.6
20230208075940 20 27 0.0 0.0 0.00 0.00 0.00 78 1040.7
20230208075440 19 32 0.0 0.0 0.00 0.00 0.00 79 1040.7
20230208074939 17 17 0.0 0.0 0.00 0.00 0.00 80 1040.7
20230208074439 16 42 0.0 0.0 0.00 0.00 0.00 79 1040.8
20230208073939 16 47 3.5 0.0 0.00 0.00 0.00 79 1040.8
20230208073439 16 50 3.5 0.0 0.00 0.00 0.00 78 1040.8
20230208072939 15 0 3.5 0.0 0.00 0.00 0.00 79 1040.7
20230208072439 15 15 3.5 0.0 0.00 0.00 0.00 79 1040.8
20230208071939 15 45 3.5 0.0 0.00 0.00 0.00 80 1040.8
20230208071439 15 32 2.6 0.0 0.00 0.00 0.00 79 1040.8
20230208070938 15 50 3.5 0.0 0.00 0.00 0.00 79 1040.9
20230208070438 15 30 3.5 0.0 0.00 0.00 0.00 78 1041.0
20230208065938 15 15 3.5 0.0 0.00 0.00 0.00 79 1040.9
20230208065438 14 355 0.0 0.0 0.00 0.00 0.00 81 1040.9
20230208064938 14 355 0.0 0.0 0.00 0.00 0.00 81 1040.8
20230208064438 14 22 3.5 0.0 0.00 0.00 0.00 81 1040.9
20230208063938 14 15 2.6 0.0 0.00 0.00 0.00 81 1040.9
20230208063437 14 35 2.6 0.0 0.00 0.00 0.00 80 1040.8
20230208062937 15 25 3.5 0.0 0.00 0.00 0.00 81 1040.8
20230208062437 15 17 3.5 0.0 0.00 0.00 0.00 81 1040.8
20230208061937 14 20 3.5 0.0 0.00 0.00 0.00 82 1040.8
20230208061437 14 32 3.5 0.0 0.00 0.00 0.00 82 1040.9
20230208060937 14 27 0.0 0.0 0.00 0.00 0.00 81 1040.9
20230208060437 14 87 0.0 0.0 0.00 0.00 0.00 81 1040.8
20230208055937 14 12 2.6 0.0 0.00 0.00 0.00 81 1040.9
20230208055437 14 15 3.5 0.0 0.00 0.00 0.00 81 1040.7
20230208054936 14 15 3.5 0.0 0.00 0.00 0.00 82 1040.7
20230208054436 14 5 2.6 0.0 0.00 0.00 0.00 83 1040.6
20230208053936 14 42 3.5 0.0 0.00 0.00 0.00 83 1040.7
20230208053436 14 42 3.5 0.0 0.00 0.00 0.00 83 1040.6
20230208052936 14 25 3.5 0.0 0.00 0.00 0.00 83 1040.5
20230208052436 13 37 3.5 0.0 0.00 0.00 0.00 82 1040.7
20230208051936 14 45 3.5 0.0 0.00 0.00 0.00 81 1040.6
20230208051436 14 25 0.0 0.0 0.00 0.00 0.00 81 1040.4
20230208050935 14 7 0.0 0.0 0.00 0.00 0.00 81 1040.5
20230208050435 14 357 2.6 0.0 0.00 0.00 0.00 83 1040.5
20230208045935 14 17 3.5 0.0 0.00 0.00 0.00 83 1040.5
20230208045435 14 0 3.5 0.0 0.00 0.00 0.00 83 1040.6
20230208044935 14 20 3.5 0.0 0.00 0.00 0.00 83 1040.6
20230208044435 13 27 3.5 0.0 0.00 0.00 0.00 83 1040.7
20230208043935 13 35 0.0 0.0 0.00 0.00 0.00 82 1040.6
20230208043434 14 30 0.0 0.0 0.00 0.00 0.00 81 1040.7
20230208042934 14 7 0.0 0.0 0.00 0.00 0.00 80 1040.7
20230208042434 14 350 2.6 0.0 0.00 0.00 0.00 80 1040.7
20230208041934 15 12 2.6 0.0 0.00 0.00 0.00 81 1040.6
20230208041434 14 357 2.6 0.0 0.00 0.00 0.00 82 1040.7
20230208040934 14 20 2.6 0.0 0.00 0.00 0.00 82 1040.7
20230208040434 14 25 2.6 0.0 0.00 0.00 0.00 82 1040.7
20230208035934 14 27 3.5 0.0 0.00 0.00 0.00 82 1040.7
20230208035433 14 17 2.6 0.0 0.00 0.00 0.00 82 1040.7
20230208034933 14 45 0.0 0.0 0.00 0.00 0.00 81 1040.7
20230208034434 14 25 0.0 0.0 0.00 0.00 0.00 81 1040.7
20230208033933 15 10 2.6 0.0 0.00 0.00 0.00 80 1040.7
20230208033433 15 25 3.5 0.0 0.00 0.00 0.00 81 1040.7
20230208032933 14 27 3.5 0.0 0.00 0.00 0.00 82 1040.7
20230208032433 14 22 2.6 0.0 0.00 0.00 0.00 82 1040.5
20230208031933 14 15 2.6 0.0 0.00 0.00 0.00 83 1040.6
20230208031433 14 20 0.0 0.0 0.00 0.00 0.00 83 1040.6
20230208030932 14 20 0.0 0.0 0.00 0.00 0.00 83 1040.6
20230208030432 14 30 0.0 0.0 0.00 0.00 0.00 82 1040.6
20230208025932 14 27 3.5 0.0 0.00 0.00 0.00 81 1040.7
20230208025432 14 17 2.6 0.0 0.00 0.00 0.00 82 1040.6
20230208024932 14 17 2.6 0.0 0.00 0.00 0.00 82 1040.6
20230208024432 14 15 3.5 0.0 0.00 0.00 0.00 83 1040.7
20230208023932 14 35 2.6 0.0 0.00 0.00 0.00 83 1040.7
20230208023431 14 22 2.6 0.0 0.00 0.00 0.00 83 1040.5
20230208022931 14 10 0.0 0.0 0.00 0.00 0.00 82 1040.5
20230208022431 14 12 0.0 0.0 0.00 0.00 0.00 83 1040.5
20230208021931 14 22 0.0 0.0 0.00 0.00 0.00 82 1040.5
20230208021431 14 2 2.6 0.0 0.00 0.00 0.00 82 1040.5
20230208020931 14 27 2.6 0.0 0.00 0.00 0.00 82 1040.6
20230208020431 14 30 2.6 0.0 0.00 0.00 0.00 82 1040.8
20230208015931 14 30 2.6 0.0 0.00 0.00 0.00 82 1040.9
20230208015430 14 22 2.6 0.0 0.00 0.00 0.00 82 1040.9
20230208014930 15 25 2.6 0.0 0.00 0.00 0.00 82 1041.0
20230208014430 15 20 3.5 0.0 0.00 0.00 0.00 83 1041.0
20230208013930 14 20 2.6 0.0 0.00 0.00 0.00 84 1041.0
20230208013430 14 25 2.6 0.0 0.00 0.00 0.00 83 1040.9
20230208012930 14 32 3.5 0.0 0.00 0.00 0.00 83 1041.2
20230208012430 14 20 2.6 0.0 0.00 0.00 0.00 83 1041.2
20230208011929 14 355 3.5 0.0 0.00 0.00 0.00 84 1041.1
20230208011429 14 15 3.5 0.0 0.00 0.00 0.00 85 1041.2
20230208010929 14 12 0.0 0.0 0.00 0.00 0.00 85 1041.1
20230208010429 14 20 0.0 0.0 0.00 0.00 0.00 86 1041.0
20230208005929 14 25 0.0 0.0 0.00 0.00 0.00 85 1041.1
20230208005429 14 22 3.5 0.0 0.00 0.00 0.00 85 1041.0
20230208004929 14 30 0.0 0.0 0.00 0.00 0.00 85 1040.9
20230208004429 14 25 0.0 0.0 0.00 0.00 0.00 85 1040.9
20230208003928 14 22 3.5 0.0 0.00 0.00 0.00 85 1041.0
20230208003428 14 22 3.5 0.0 0.00 0.00 0.00 85 1041.1
20230208002928 14 35 3.5 0.0 0.00 0.00 0.00 85 1041.0
20230208002428 14 350 2.6 0.0 0.00 0.00 0.00 86 1040.8
20230208001928 15 27 2.6 0.0 0.00 0.00 0.00 86 1041.0
20230208001428 15 27 2.6 0.0 0.00 0.00 0.00 86 1041.0
20230208000928 14 22 3.5 0.0 0.00 0.00 0.00 87 1041.1
20230208000429 14 42 3.5 0.0 0.00 0.00 0.00 86 1041.1
20230207235927 14 57 0.0 0.0 0.00 0.00 0.00 86 1041.0
20230207235427 15 355 0.0 0.0 0.00 0.00 0.00 87 1041.0
20230207234927 15 12 2.6 0.0 0.00 0.00 0.00 87 1041.0
20230207234427 14 20 0.0 0.0 0.00 0.00 0.00 87 1041.0
20230207233927 14 20 0.0 0.0 0.00 0.00 0.00 87 1041.0
20230207233427 15 5 3.5 0.0 0.00 0.00 0.00 87 1041.0
20230207232927 15 15 2.6 0.0 0.00 0.00 0.00 87 1040.9
20230207232426 15 10 0.0 0.0 0.00 0.00 0.00 88 1040.9
20230207231926 15 5 3.5 0.0 0.00 0.00 0.00 88 1040.8
20230207231426 15 5 3.5 0.0 0.00 0.00 0.00 88 1040.7
20230207230926 15 25 2.6 0.0 0.00 0.00 0.00 88 1040.7
20230207230426 15 25 2.6 0.0 0.00 0.00 0.00 88 1040.7
20230207225926 15 35 0.0 0.0 0.00 0.00 0.00 88 1040.6
20230207225426 15 15 0.0 0.0 0.00 0.00 0.00 88 1040.6
20230207224926 15 25 2.6 0.0 0.00 0.00 0.00 88 1040.7
20230207224426 15 35 0.0 0.0 0.00 0.00 0.00 88 1040.6
20230207223925 15 55 2.6 0.0 0.00 0.00 0.00 87 1040.7
20230207223425 15 0 2.6 0.0 0.00 0.00 0.00 88 1040.7
20230207222925 15 5 2.6 0.0 0.00 0.00 0.00 88 1040.7
20230207222425 15 20 0.0 0.0 0.00 0.00 0.00 87 1040.7
20230207221925 15 25 1.7 0.0 0.00 0.00 0.00 87 1040.8
20230207221425 15 342 2.6 0.0 0.00 0.00 0.00 88 1040.7
20230207220925 15 25 2.6 0.0 0.00 0.00 0.00 88 1040.7
20230207220425 15 30 2.6 0.0 0.00 0.00 0.00 87 1040.7
20230207215924 15 35 0.0 0.0 0.00 0.00 0.00 87 1040.7
20230207215424 15 25 0.0 0.0 0.00 0.00 0.00 87 1040.7
20230207214924 15 27 0.0 0.0 0.00 0.00 0.00 87 1040.6
20230207214424 15 340 2.6 0.0 0.00 0.00 0.00 87 1040.6
20230207213924 16 17 0.0 0.0 0.00 0.00 0.00 87 1040.5
20230207213424 16 17 0.0 0.0 0.00 0.00 0.00 87 1040.5
20230207212924 16 17 0.0 0.0 0.00 0.00 0.00 87 1040.5
20230207212424 16 30 0.0 0.0 0.00 0.00 0.00 87 1040.5
20230207211923 16 17 0.0 0.0 0.00 0.00 0.00 87 1040.5
20230207211423 16 20 2.6 0.0 0.00 0.00 0.00 87 1040.6
20230207210923 16 25 2.6 0.0 0.00 0.00 0.00 87 1040.6
20230207210423 16 25 2.6 0.0 0.00 0.00 0.00 87 1040.6
20230207205923 16 15 1.7 0.0 0.00 0.00 0.00 87 1040.6
20230207205423 16 25 2.6 0.0 0.00 0.00 0.00 86 1040.5
20230207204923 16 22 2.6 0.0 0.00 0.00 0.00 86 1040.6
20230207204423 17 30 3.5 0.0 0.00 0.00 0.00 86 1040.6
20230207203922 16 15 2.6 0.0 0.00 0.00 0.00 86 1040.5
20230207203422 16 27 2.6 0.0 0.00 0.00 0.00 86 1040.5
20230207202922 17 20 1.7 0.0 0.00 0.00 0.00 86 1040.7
20230207202422 17 355 3.5 0.0 0.00 0.00 0.00 86 1040.6
20230207201922 17 2 2.6 0.0 0.00 0.00 0.00 86 1040.6
20230207201422 17 7 0.0 0.0 0.00 0.00 0.00 86 1040.6
20230207200922 17 357 2.6 0.0 0.00 0.00 0.00 86 1040.6
20230207200422 17 15 2.6 0.0 0.00 0.00 0.00 86 1040.5
20230207195921 17 20 3.5 0.0 0.00 0.00 0.00 86 1040.5
20230207195421 17 25 0.0 0.0 0.00 0.00 0.00 86 1040.5
20230207194921 17 22 0.0 0.0 0.00 0.00 0.00 86 1040.5
20230207194421 17 45 1.7 0.0 0.00 0.00 0.00 85 1040.5
20230207193921 17 30 1.7 0.0 0.00 0.00 0.00 85 1040.4
20230207193421 17 25 0.0 0.0 0.00 0.00 0.00 85 1040.4
20230207192921 17 15 0.0 0.0 0.00 0.00 0.00 85 1040.5
20230207192421 18 12 0.0 0.0 0.00 0.00 0.00 85 1040.3
20230207191920 18 22 2.6 0.0 0.00 0.00 0.00 85 1040.2
20230207191420 18 17 0.0 0.0 0.00 0.00 0.00 85 1040.2
20230207190920 18 20 0.0 0.0 0.00 0.00 0.00 84 1040.2
20230207190420 18 27 0.0 0.0 0.00 0.00 0.00 84 1040.2
20230207185920 18 15 0.0 0.0 0.00 0.00 0.00 84 1040.1
20230207185420 18 40 2.6 0.0 0.00 0.00 0.00 83 1040.1
20230207184920 18 20 0.0 0.0 0.00 0.00 0.00 83 1040.0
20230207184420 19 15 2.6 0.0 0.00 0.00 0.00 83 1040.0
20230207183919 19 357 3.5 0.0 0.00 0.00 0.00 83 1040.0
20230207183419 19 350 3.5 0.0 0.00 0.00 0.00 83 1039.9
20230207182919 19 20 0.0 0.0 0.00 0.00 0.00 82 1039.8
20230207182419 19 35 0.0 0.0 0.00 0.00 0.00 82 1039.8
20230207181919 20 350 0.0 0.0 0.00 0.00 0.00 82 1039.8
20230207181419 20 22 0.0 0.0 0.00 0.00 0.00 82 1039.8
20230207180919 20 12 0.0 0.0 0.00 0.00 0.00 81 1039.6
20230207180419 20 22 0.0 0.0 0.00 0.00 0.00 81 1039.6
20230207175919 20 15 0.0 0.0 0.00 0.00 0.00 80 1039.6
20230207175418 21 20 0.0 0.0 0.00 0.00 0.00 80 1039.4
20230207174918 21 25 0.0 0.0 0.00 0.00 0.00 79 1039.3
20230207174418 22 357 2.6 0.0 0.00 0.00 0.00 79 1039.2
20230207173918 22 332 4.3 0.0 0.00 0.00 0.00 78 1039.2
20230207173418 23 30 3.5 0.0 0.00 0.00 0.00 79 1039.1
20230207172918 22 45 0.0 0.0 0.00 0.00 0.00 78 1039.1
20230207172418 23 2 2.6 0.0 0.00 0.00 0.00 78 1039.0